| time (UTC) | temp F | wind direction | speed knots | gust knots | rain 1hr in | rain 24hr in | rain mn in | humidity % | barometer mb |
| 20260904172505 | 91 | 174 | 11.3 | 0.0 | 0.00 | 0.00 | 0.00 | 43 | 1010.6 |
| 20260904172005 | 90 | 177 | 7.8 | 0.0 | 0.00 | 0.00 | 0.00 | 46 | 1010.3 |
| 20260904171505 | 89 | 85 | 11.3 | 0.0 | 0.00 | 0.00 | 0.00 | 48 | 1010.3 |
| 20260904171005 | 89 | 148 | 3.5 | 0.0 | 0.00 | 0.00 | 0.00 | 48 | 1010.3 |
| 20260904170505 | 90 | 179 | 11.3 | 0.0 | 0.00 | 0.00 | 0.00 | 47 | 1010.6 |
| 20260904170005 | 89 | 125 | 3.5 | 0.0 | 0.00 | 0.00 | 0.00 | 49 | 1010.6 |
| 20260904165505 | 89 | 99 | 11.3 | 0.0 | 0.00 | 0.00 | 0.00 | 50 | 1010.6 |
| 20260904165005 | 89 | 149 | 15.6 | 0.0 | 0.00 | 0.00 | 0.00 | 49 | 1010.6 |
| 20260904164505 | 89 | 119 | 15.6 | 0.0 | 0.00 | 0.00 | 0.00 | 51 | 1010.6 |
| 20260904164005 | 88 | 172 | 23.5 | 0.0 | 0.00 | 0.00 | 0.00 | 52 | 1010.6 |
| 20260904163505 | 89 | 21 | 11.3 | 0.0 | 0.00 | 0.00 | 0.00 | 50 | 1011.0 |
| 20260904163005 | 89 | 32 | 7.8 | 0.0 | 0.00 | 0.00 | 0.00 | 50 | 1011.0 |
| 20260904162505 | 89 | 177 | 11.3 | 0.0 | 0.00 | 0.00 | 0.00 | 52 | 1010.6 |
| 20260904162005 | 88 | 128 | 3.5 | 0.0 | 0.00 | 0.00 | 0.00 | 54 | 1010.6 |
| 20260904161505 | 89 | 22 | 11.3 | 0.0 | 0.00 | 0.00 | 0.00 | 54 | 1010.6 |
| 20260904161005 | 88 | 173 | 3.5 | 0.0 | 0.00 | 0.00 | 0.00 | 55 | 1011.0 |
| 20260904160505 | 87 | 187 | 7.8 | 0.0 | 0.00 | 0.00 | 0.00 | 56 | 1010.6 |
| 20260904160005 | 86 | 58 | 11.3 | 0.0 | 0.00 | 0.00 | 0.00 | 58 | 1011.0 |
| 20260904155505 | 86 | 60 | 7.8 | 0.0 | 0.00 | 0.00 | 0.00 | 58 | 1010.6 |
| 20260904155005 | 86 | 138 | 15.6 | 0.0 | 0.00 | 0.00 | 0.00 | 58 | 1010.6 |
| 20260904154713 | 86 | 119 | 7.8 | 0.0 | 0.00 | 0.00 | 0.00 | 59 | 1010.6 |
| 20260904154212 | 87 | 40 | 11.3 | 0.0 | 0.00 | 0.00 | 0.00 | 56 | 1010.6 |
| 20260904153505 | 86 | 105 | 7.8 | 0.0 | 0.00 | 0.00 | 0.00 | 59 | 1011.0 |
| 20260904153005 | 86 | 64 | 11.3 | 0.0 | 0.00 | 0.00 | 0.00 | 61 | 1011.0 |
| 20260904152713 | 85 | 99 | 20.0 | 0.0 | 0.00 | 0.00 | 0.00 | 61 | 1011.0 |
| 20260904152005 | 85 | 29 | 15.6 | 0.0 | 0.00 | 0.00 | 0.00 | 64 | 1011.0 |
| 20260904151711 | 84 | 110 | 11.3 | 0.0 | 0.00 | 0.00 | 0.00 | 64 | 1011.0 |
| 20260904151005 | 84 | 64 | 11.3 | 0.0 | 0.00 | 0.00 | 0.00 | 67 | 1011.0 |
| 20260904150505 | 84 | 96 | 7.8 | 0.0 | 0.00 | 0.00 | 0.00 | 66 | 1011.0 |
| 20260904150005 | 84 | 111 | 11.3 | 0.0 | 0.00 | 0.00 | 0.00 | 67 | 1010.6 |
| 20260904145713 | 83 | 114 | 23.5 | 0.0 | 0.00 | 0.00 | 0.00 | 68 | 1010.6 |
| 20260904145005 | 83 | 158 | 11.3 | 0.0 | 0.00 | 0.00 | 0.00 | 69 | 1010.6 |
| 20260904144505 | 83 | 175 | 7.8 | 0.0 | 0.00 | 0.00 | 0.00 | 71 | 1010.6 |
| 20260904144005 | 82 | 169 | 7.8 | 0.0 | 0.00 | 0.00 | 0.00 | 73 | 1010.6 |
| 20260904143505 | 82 | 13 | 3.5 | 0.0 | 0.00 | 0.00 | 0.00 | 75 | 1010.6 |
| 20260904143005 | 82 | 160 | 7.8 | 0.0 | 0.00 | 0.00 | 0.00 | 74 | 1011.0 |
| 20260904142504 | 82 | 116 | 7.8 | 0.0 | 0.00 | 0.00 | 0.00 | 75 | 1010.6 |
| 20260904142005 | 81 | 101 | 15.6 | 0.0 | 0.00 | 0.00 | 0.00 | 76 | 1011.0 |
| 20260904141505 | 81 | 166 | 7.8 | 0.0 | 0.00 | 0.00 | 0.00 | 77 | 1010.6 |
| 20260904141005 | 81 | 142 | 7.8 | 0.0 | 0.00 | 0.00 | 0.00 | 77 | 1010.6 |
| 20260904140713 | 81 | 148 | 11.3 | 0.0 | 0.00 | 0.00 | 0.00 | 77 | 1010.6 |
| 20260904140004 | 80 | 160 | 11.3 | 0.0 | 0.00 | 0.00 | 0.00 | 78 | 1010.6 |
| 20260904135505 | 80 | 78 | 7.8 | 0.0 | 0.00 | 0.00 | 0.00 | 79 | 1010.6 |
| 20260904135212 | 80 | 133 | 7.8 | 0.0 | 0.00 | 0.00 | 0.00 | 79 | 1010.6 |
| 20260904134505 | 80 | 101 | 11.3 | 0.0 | 0.00 | 0.00 | 0.00 | 79 | 1010.6 |
| 20260904134005 | 80 | 47 | 3.5 | 0.0 | 0.00 | 0.00 | 0.00 | 80 | 1010.6 |
| 20260904133505 | 80 | 129 | 3.5 | 0.0 | 0.00 | 0.00 | 0.00 | 81 | 1010.6 |
| 20260904133005 | 80 | 134 | 3.5 | 0.0 | 0.00 | 0.00 | 0.00 | 81 | 1010.6 |
| 20260904132505 | 80 | 94 | 7.8 | 0.0 | 0.00 | 0.00 | 0.00 | 81 | 1010.6 |
| 20260904132005 | 79 | 127 | 0.0 | 0.0 | 0.00 | 0.00 | 0.00 | 82 | 1010.3 |
| 20260904131504 | 79 | 88 | 3.5 | 0.0 | 0.00 | 0.00 | 0.00 | 82 | 1010.6 |
| 20260904131005 | 79 | 24 | 7.8 | 0.0 | 0.00 | 0.00 | 0.00 | 83 | 1010.3 |
| 20260904130505 | 78 | 111 | 0.0 | 0.0 | 0.00 | 0.00 | 0.00 | 83 | 1010.6 |
| 20260904130005 | 78 | 76 | 3.5 | 0.0 | 0.00 | 0.00 | 0.00 | 84 | 1010.3 |
| 20260904125505 | 78 | 110 | 3.5 | 0.0 | 0.00 | 0.00 | 0.00 | 84 | 1010.3 |
| 20260904125005 | 78 | 141 | 0.0 | 0.0 | 0.00 | 0.00 | 0.00 | 84 | 1010.3 |
| 20260904124505 | 78 | 53 | 7.8 | 0.0 | 0.00 | 0.00 | 0.00 | 85 | 1010.3 |
| 20260904124005 | 78 | 149 | 0.0 | 0.0 | 0.00 | 0.00 | 0.00 | 85 | 1010.3 |
| 20260904123712 | 78 | 115 | 3.5 | 0.0 | 0.00 | 0.00 | 0.00 | 85 | 1010.3 |
| 20260904123005 | 77 | 34 | 3.5 | 0.0 | 0.00 | 0.00 | 0.00 | 86 | 1009.9 |
| 20260904122505 | 77 | 116 | 7.8 | 0.0 | 0.00 | 0.00 | 0.00 | 86 | 1010.3 |
| 20260904122211 | 77 | 73 | 3.5 | 0.0 | 0.00 | 0.00 | 0.00 | 86 | 1010.3 |
| 20260904121505 | 77 | 120 | 0.0 | 0.0 | 0.00 | 0.00 | 0.00 | 86 | 1009.6 |
| 20260904121005 | 77 | 110 | 0.0 | 0.0 | 0.00 | 0.00 | 0.00 | 86 | 1009.9 |
| 20260904120505 | 77 | 114 | 3.5 | 0.0 | 0.00 | 0.00 | 0.00 | 86 | 1009.9 |
| 20260904120213 | 77 | 119 | 7.8 | 0.0 | 0.00 | 0.00 | 0.00 | 86 | 1009.6 |
| 20260904115505 | 77 | 115 | 0.0 | 0.0 | 0.00 | 0.00 | 0.00 | 86 | 1009.6 |
| 20260904115005 | 77 | 124 | 0.0 | 0.0 | 0.00 | 0.00 | 0.00 | 86 | 1009.6 |
| 20260904114505 | 77 | 93 | 7.8 | 0.0 | 0.00 | 0.00 | 0.00 | 86 | 1009.6 |
| 20260904114004 | 78 | 115 | 0.0 | 0.0 | 0.00 | 0.00 | 0.00 | 86 | 1009.3 |
| 20260904113505 | 78 | 58 | 3.5 | 0.0 | 0.00 | 0.00 | 0.00 | 86 | 1009.6 |
| 20260904113005 | 78 | 102 | 7.8 | 0.0 | 0.00 | 0.00 | 0.00 | 86 | 1009.6 |
| 20260904112505 | 78 | 138 | 0.0 | 0.0 | 0.00 | 0.00 | 0.00 | 86 | 1009.6 |
| 20260904112005 | 78 | 108 | 0.0 | 0.0 | 0.00 | 0.00 | 0.00 | 85 | 1009.3 |
| 20260904111505 | 78 | 121 | 0.0 | 0.0 | 0.00 | 0.00 | 0.00 | 85 | 1009.6 |
| 20260904111005 | 78 | 134 | 0.0 | 0.0 | 0.00 | 0.00 | 0.00 | 85 | 1009.6 |
| 20260904110505 | 78 | 111 | 0.0 | 0.0 | 0.00 | 0.00 | 0.00 | 85 | 1009.6 |
| 20260904110005 | 78 | 91 | 0.0 | 0.0 | 0.00 | 0.00 | 0.00 | 85 | 1009.6 |
| 20260904105504 | 78 | 107 | 0.0 | 0.0 | 0.00 | 0.00 | 0.00 | 85 | 1009.6 |
| 20260904105213 | 78 | 124 | 0.0 | 0.0 | 0.00 | 0.00 | 0.00 | 84 | 1009.6 |
| 20260904104505 | 78 | 89 | 0.0 | 0.0 | 0.00 | 0.00 | 0.00 | 84 | 1009.6 |
| 20260904104004 | 78 | 93 | 3.5 | 0.0 | 0.00 | 0.00 | 0.00 | 84 | 1009.6 |
| 20260904103714 | 79 | 48 | 7.8 | 0.0 | 0.00 | 0.00 | 0.00 | 83 | 1009.6 |
| 20260904103005 | 79 | 128 | 0.0 | 0.0 | 0.00 | 0.00 | 0.00 | 83 | 1009.3 |
| 20260904102711 | 79 | 109 | 0.0 | 0.0 | 0.00 | 0.00 | 0.00 | 82 | 1009.3 |
| 20260904102005 | 79 | 150 | 7.8 | 0.0 | 0.00 | 0.00 | 0.00 | 82 | 1009.3 |
| 20260904101505 | 79 | 92 | 3.5 | 0.0 | 0.00 | 0.00 | 0.00 | 82 | 1008.9 |
| 20260904101005 | 79 | 116 | 3.5 | 0.0 | 0.00 | 0.00 | 0.00 | 82 | 1009.3 |
| 20260904100713 | 79 | 116 | 0.0 | 0.0 | 0.00 | 0.00 | 0.00 | 82 | 1009.3 |
| 20260904100212 | 79 | 71 | 0.0 | 0.0 | 0.00 | 0.00 | 0.00 | 82 | 1009.6 |
| 20260904095711 | 79 | 121 | 3.5 | 0.0 | 0.00 | 0.00 | 0.00 | 82 | 1009.3 |
| 20260904095005 | 79 | 179 | 7.8 | 0.0 | 0.00 | 0.00 | 0.00 | 82 | 1009.3 |
| 20260904094711 | 80 | 126 | 3.5 | 0.0 | 0.00 | 0.00 | 0.00 | 81 | 1009.6 |
| 20260904094005 | 80 | 162 | 7.8 | 0.0 | 0.00 | 0.00 | 0.00 | 81 | 1009.6 |
| 20260904093505 | 80 | 115 | 3.5 | 0.0 | 0.00 | 0.00 | 0.00 | 81 | 1009.6 |
| 20260904093212 | 80 | 118 | 3.5 | 0.0 | 0.00 | 0.00 | 0.00 | 81 | 1009.6 |
| 20260904092713 | 80 | 105 | 0.0 | 0.0 | 0.00 | 0.00 | 0.00 | 81 | 1009.3 |
| 20260904092005 | 80 | 91 | 3.5 | 0.0 | 0.00 | 0.00 | 0.00 | 81 | 1009.3 |
| 20260904091505 | 80 | 74 | 3.5 | 0.0 | 0.00 | 0.00 | 0.00 | 81 | 1009.6 |
| 20260904091005 | 80 | 95 | 7.8 | 0.0 | 0.00 | 0.00 | 0.00 | 80 | 1009.6 |
| 20260904090713 | 80 | 53 | 0.0 | 0.0 | 0.00 | 0.00 | 0.00 | 80 | 1009.3 |
| 20260904090005 | 80 | 28 | 3.5 | 0.0 | 0.00 | 0.00 | 0.00 | 80 | 1009.6 |
| 20260904085505 | 80 | 120 | 3.5 | 0.0 | 0.00 | 0.00 | 0.00 | 80 | 1009.6 |
| 20260904085005 | 80 | 188 | 7.8 | 0.0 | 0.00 | 0.00 | 0.00 | 80 | 1009.6 |
| 20260904084505 | 80 | 84 | 3.5 | 0.0 | 0.00 | 0.00 | 0.00 | 79 | 1009.6 |
| 20260904084212 | 80 | 99 | 11.3 | 0.0 | 0.00 | 0.00 | 0.00 | 79 | 1009.6 |
| 20260904083505 | 80 | 121 | 3.5 | 0.0 | 0.00 | 0.00 | 0.00 | 80 | 1009.6 |
| 20260904083005 | 80 | 148 | 7.8 | 0.0 | 0.00 | 0.00 | 0.00 | 80 | 1009.6 |
| 20260904082504 | 80 | 113 | 0.0 | 0.0 | 0.00 | 0.00 | 0.00 | 80 | 1009.6 |
| 20260904082005 | 80 | 168 | 7.8 | 0.0 | 0.00 | 0.00 | 0.00 | 81 | 1009.9 |
| 20260904081505 | 80 | 129 | 0.0 | 0.0 | 0.00 | 0.00 | 0.00 | 80 | 1009.9 |
| 20260904081005 | 80 | 146 | 3.5 | 0.0 | 0.00 | 0.00 | 0.00 | 80 | 1009.9 |
| 20260904080505 | 80 | 124 | 0.0 | 0.0 | 0.00 | 0.00 | 0.00 | 80 | 1009.9 |
| 20260904080005 | 80 | 22 | 3.5 | 0.0 | 0.00 | 0.00 | 0.00 | 80 | 1009.9 |
| 20260904075505 | 80 | 27 | 3.5 | 0.0 | 0.00 | 0.00 | 0.00 | 80 | 1009.9 |
| 20260904075005 | 80 | 145 | 0.0 | 0.0 | 0.00 | 0.00 | 0.00 | 80 | 1009.9 |
| 20260904074712 | 80 | 121 | 3.5 | 0.0 | 0.00 | 0.00 | 0.00 | 80 | 1009.9 |
| 20260904074005 | 80 | 87 | 3.5 | 0.0 | 0.00 | 0.00 | 0.00 | 80 | 1009.9 |
| 20260904073505 | 80 | 115 | 0.0 | 0.0 | 0.00 | 0.00 | 0.00 | 80 | 1009.9 |
| 20260904073211 | 80 | 87 | 3.5 | 0.0 | 0.00 | 0.00 | 0.00 | 80 | 1009.9 |
| 20260904072505 | 80 | 60 | 7.8 | 0.0 | 0.00 | 0.00 | 0.00 | 80 | 1010.3 |
| 20260904072005 | 80 | 99 | 0.0 | 0.0 | 0.00 | 0.00 | 0.00 | 80 | 1010.3 |
| 20260904071505 | 80 | 70 | 15.6 | 0.0 | 0.00 | 0.00 | 0.00 | 80 | 1010.3 |
| 20260904071005 | 80 | 134 | 0.0 | 0.0 | 0.00 | 0.00 | 0.00 | 81 | 1010.3 |
| 20260904070505 | 80 | 70 | 3.5 | 0.0 | 0.00 | 0.00 | 0.00 | 81 | 1010.3 |
| 20260904070005 | 80 | 57 | 7.8 | 0.0 | 0.00 | 0.00 | 0.00 | 81 | 1010.3 |
| 20260904065505 | 80 | 38 | 7.8 | 0.0 | 0.00 | 0.00 | 0.00 | 80 | 1010.3 |
| 20260904065005 | 80 | 12 | 3.5 | 0.0 | 0.00 | 0.00 | 0.00 | 80 | 1010.3 |
| 20260904064504 | 80 | 28 | 3.5 | 0.0 | 0.00 | 0.00 | 0.00 | 80 | 1010.6 |
| 20260904064005 | 80 | 77 | 7.8 | 0.0 | 0.00 | 0.00 | 0.00 | 80 | 1010.6 |
| 20260904063505 | 80 | 75 | 7.8 | 0.0 | 0.00 | 0.00 | 0.00 | 80 | 1010.3 |
| 20260904063005 | 80 | 18 | 3.5 | 0.0 | 0.00 | 0.00 | 0.00 | 80 | 1010.3 |
| 20260904062712 | 80 | 116 | 3.5 | 0.0 | 0.00 | 0.00 | 0.00 | 80 | 1010.3 |
| 20260904062213 | 80 | 186 | 3.5 | 0.0 | 0.00 | 0.00 | 0.00 | 79 | 1010.3 |
| 20260904061505 | 80 | 104 | 7.8 | 0.0 | 0.00 | 0.00 | 0.00 | 79 | 1010.6 |
| 20260904061213 | 80 | 109 | 7.8 | 0.0 | 0.00 | 0.00 | 0.00 | 79 | 1010.3 |
| 20260904060712 | 80 | 114 | 15.6 | 0.0 | 0.00 | 0.00 | 0.00 | 79 | 1010.3 |
| 20260904060005 | 80 | 136 | 7.8 | 0.0 | 0.00 | 0.00 | 0.00 | 79 | 1010.3 |
| 20260904055505 | 80 | 73 | 0.0 | 0.0 | 0.00 | 0.00 | 0.00 | 79 | 1009.9 |
| 20260904055005 | 80 | 61 | 7.8 | 0.0 | 0.00 | 0.00 | 0.00 | 79 | 1010.6 |
| 20260904054505 | 80 | 127 | 3.5 | 0.0 | 0.00 | 0.00 | 0.00 | 78 | 1010.3 |
| 20260904054005 | 80 | 81 | 7.8 | 0.0 | 0.00 | 0.00 | 0.00 | 78 | 1010.3 |
| 20260904053505 | 80 | 34 | 11.3 | 0.0 | 0.00 | 0.00 | 0.00 | 78 | 1010.3 |
| 20260904053005 | 80 | 160 | 7.8 | 0.0 | 0.00 | 0.00 | 0.00 | 78 | 1010.3 |
| 20260904052212 | 80 | 41 | 7.8 | 0.0 | 0.00 | 0.00 | 0.00 | 79 | 1010.6 |
| 20260904051505 | 80 | 165 | 0.0 | 0.0 | 0.00 | 0.00 | 0.00 | 79 | 1010.6 |
| 20260904051006 | 80 | 129 | 0.0 | 0.0 | 0.00 | 0.00 | 0.00 | 79 | 1010.3 |
| 20260904050713 | 80 | 70 | 15.6 | 0.0 | 0.00 | 0.00 | 0.00 | 79 | 1010.6 |
| 20260904045505 | 80 | 222 | 15.6 | 0.0 | 0.00 | 0.00 | 0.00 | 78 | 1010.6 |
| 20260904045005 | 80 | 136 | 7.8 | 0.0 | 0.00 | 0.00 | 0.00 | 78 | 1010.6 |
| 20260904044505 | 80 | 82 | 7.8 | 0.0 | 0.00 | 0.00 | 0.00 | 78 | 1010.6 |
| 20260904044005 | 80 | 57 | 3.5 | 0.0 | 0.00 | 0.00 | 0.00 | 78 | 1010.6 |
| 20260904043713 | 80 | 53 | 7.8 | 0.0 | 0.00 | 0.00 | 0.00 | 78 | 1010.6 |
| 20260904043004 | 80 | 62 | 11.3 | 0.0 | 0.00 | 0.00 | 0.00 | 78 | 1010.3 |
| 20260904042505 | 81 | 76 | 11.3 | 0.0 | 0.00 | 0.00 | 0.00 | 77 | 1010.3 |
| 20260904042005 | 81 | 85 | 11.3 | 0.0 | 0.00 | 0.00 | 0.00 | 77 | 1010.6 |
| 20260904041505 | 81 | 166 | 3.5 | 0.0 | 0.00 | 0.00 | 0.00 | 77 | 1010.3 |
| 20260904041212 | 81 | 108 | 11.3 | 0.0 | 0.00 | 0.00 | 0.00 | 76 | 1010.3 |
| 20260904040505 | 81 | 151 | 7.8 | 0.0 | 0.00 | 0.00 | 0.00 | 76 | 1010.3 |
| 20260904040005 | 81 | 92 | 7.8 | 0.0 | 0.00 | 0.00 | 0.00 | 76 | 1010.3 |
| 20260904035505 | 81 | 85 | 11.3 | 0.0 | 0.00 | 0.00 | 0.00 | 76 | 1010.3 |
| 20260904035005 | 81 | 75 | 7.8 | 0.0 | 0.00 | 0.00 | 0.00 | 75 | 1010.3 |
| 20260904034504 | 81 | 179 | 7.8 | 0.0 | 0.00 | 0.00 | 0.00 | 75 | 1010.3 |
| 20260904034005 | 81 | 121 | 7.8 | 0.0 | 0.00 | 0.00 | 0.00 | 74 | 1010.3 |
| 20260904033505 | 81 | 38 | 11.3 | 0.0 | 0.00 | 0.00 | 0.00 | 74 | 1010.3 |
| 20260904033212 | 81 | 8 | 11.3 | 0.0 | 0.00 | 0.00 | 0.00 | 74 | 1009.9 |
| 20260904032713 | 81 | 89 | 7.8 | 0.0 | 0.00 | 0.00 | 0.00 | 73 | 1009.9 |
| 20260904032005 | 81 | 44 | 15.6 | 0.0 | 0.00 | 0.00 | 0.00 | 73 | 1009.6 |
| 20260904031713 | 81 | 89 | 7.8 | 0.0 | 0.00 | 0.00 | 0.00 | 73 | 1009.9 |
| 20260904031212 | 81 | 240 | 7.8 | 0.0 | 0.00 | 0.00 | 0.00 | 72 | 1009.6 |
| 20260904030713 | 81 | 61 | 7.8 | 0.0 | 0.00 | 0.00 | 0.00 | 72 | 1009.6 |
| 20260904030005 | 82 | 70 | 15.6 | 0.0 | 0.00 | 0.00 | 0.00 | 72 | 1009.6 |
| 20260904025505 | 82 | 83 | 3.5 | 0.0 | 0.00 | 0.00 | 0.00 | 72 | 1009.6 |
| 20260904025005 | 82 | 34 | 11.3 | 0.0 | 0.00 | 0.00 | 0.00 | 72 | 1009.6 |
| 20260904024505 | 82 | 92 | 15.6 | 0.0 | 0.00 | 0.00 | 0.00 | 71 | 1009.6 |
| 20260904024005 | 82 | 132 | 7.8 | 0.0 | 0.00 | 0.00 | 0.00 | 71 | 1009.6 |
| 20260904023505 | 82 | 153 | 3.5 | 0.0 | 0.00 | 0.00 | 0.00 | 71 | 1009.6 |
| 20260904023005 | 82 | 64 | 15.6 | 0.0 | 0.00 | 0.00 | 0.00 | 71 | 1009.6 |
| 20260904022505 | 82 | 76 | 11.3 | 0.0 | 0.00 | 0.00 | 0.00 | 70 | 1009.6 |
| 20260904022005 | 82 | 124 | 15.6 | 0.0 | 0.00 | 0.00 | 0.00 | 70 | 1009.3 |
| 20260904021505 | 82 | 67 | 27.8 | 0.0 | 0.00 | 0.00 | 0.00 | 70 | 1009.3 |
| 20260904021211 | 82 | 9 | 11.3 | 0.0 | 0.00 | 0.00 | 0.00 | 69 | 1009.3 |
| 20260904020505 | 83 | 58 | 7.8 | 0.0 | 0.00 | 0.00 | 0.00 | 69 | 1008.9 |
| 20260904020005 | 83 | 114 | 11.3 | 0.0 | 0.00 | 0.00 | 0.00 | 69 | 1009.3 |
| 20260904015712 | 83 | 126 | 7.8 | 0.0 | 0.00 | 0.00 | 0.00 | 69 | 1009.3 |
| 20260904015005 | 83 | 112 | 7.8 | 0.0 | 0.00 | 0.00 | 0.00 | 68 | 1008.9 |
| 20260904014505 | 83 | 126 | 3.5 | 0.0 | 0.00 | 0.00 | 0.00 | 67 | 1008.9 |
| 20260904014005 | 83 | 95 | 0.0 | 0.0 | 0.00 | 0.00 | 0.00 | 66 | 1008.6 |
| 20260904013505 | 83 | 62 | 20.0 | 0.0 | 0.00 | 0.00 | 0.00 | 66 | 1008.6 |
| 20260904013005 | 83 | 98 | 7.8 | 0.0 | 0.00 | 0.00 | 0.00 | 66 | 1008.6 |
| 20260904012504 | 83 | 116 | 7.8 | 0.0 | 0.00 | 0.00 | 0.00 | 66 | 1008.6 |
| 20260904012005 | 83 | 86 | 15.6 | 0.0 | 0.00 | 0.00 | 0.00 | 65 | 1008.6 |
| 20260904011505 | 83 | 141 | 3.5 | 0.0 | 0.00 | 0.00 | 0.00 | 64 | 1008.6 |
| 20260904011005 | 84 | 75 | 7.8 | 0.0 | 0.00 | 0.00 | 0.00 | 63 | 1008.2 |
| 20260904010504 | 84 | 12 | 0.0 | 0.0 | 0.00 | 0.00 | 0.00 | 63 | 1008.6 |
| 20260904010005 | 84 | 190 | 7.8 | 0.0 | 0.00 | 0.00 | 0.00 | 62 | 1007.9 |
| 20260904005505 | 85 | 27 | 11.3 | 0.0 | 0.00 | 0.00 | 0.00 | 61 | 1008.2 |
| 20260904005005 | 85 | 53 | 23.5 | 0.0 | 0.00 | 0.00 | 0.00 | 60 | 1007.9 |
| 20260904004505 | 85 | 84 | 3.5 | 0.0 | 0.00 | 0.00 | 0.00 | 58 | 1008.2 |
| 20260904004005 | 85 | 53 | 23.5 | 0.0 | 0.00 | 0.00 | 0.00 | 57 | 1007.9 |
| 20260904003505 | 86 | 82 | 11.3 | 0.0 | 0.00 | 0.00 | 0.00 | 57 | 1008.2 |
| 20260904003004 | 86 | 66 | 11.3 | 0.0 | 0.00 | 0.00 | 0.00 | 57 | 1008.2 |
| 20260904002505 | 86 | 161 | 7.8 | 0.0 | 0.00 | 0.00 | 0.00 | 56 | 1007.9 |
| 20260904002005 | 86 | 63 | 7.8 | 0.0 | 0.00 | 0.00 | 0.00 | 55 | 1007.9 |
| 20260904001505 | 86 | 60 | 11.3 | 0.0 | 0.00 | 0.00 | 0.00 | 54 | 1007.9 |
| 20260904001005 | 86 | 104 | 15.6 | 0.0 | 0.00 | 0.00 | 0.00 | 53 | 1007.9 |
| 20260904000505 | 87 | 152 | 11.3 | 0.0 | 0.00 | 0.00 | 0.00 | 53 | 1007.9 |
| 20260904000005 | 87 | 86 | 7.8 | 0.0 | 0.00 | 0.00 | 0.00 | 52 | 1007.9 |
| 20260903235711 | 87 | 52 | 7.8 | 0.0 | 0.00 | 0.00 | 0.00 | 51 | 1007.6 |
| 20260903235005 | 88 | 90 | 15.6 | 0.0 | 0.00 | 0.00 | 0.00 | 51 | 1007.6 |
| 20260903234711 | 88 | 110 | 3.5 | 0.0 | 0.00 | 0.00 | 0.00 | 50 | 1007.9 |
| 20260903234005 | 88 | 331 | 11.3 | 0.0 | 0.00 | 0.00 | 0.00 | 50 | 1007.6 |
| 20260903233505 | 89 | 70 | 20.0 | 0.0 | 0.00 | 0.00 | 0.00 | 50 | 1007.2 |
| 20260903233005 | 89 | 110 | 7.8 | 0.0 | 0.00 | 0.00 | 0.00 | 49 | 1007.6 |
| 20260903232505 | 89 | 176 | 15.6 | 0.0 | 0.00 | 0.00 | 0.00 | 48 | 1007.2 |
| 20260903232004 | 89 | 66 | 20.0 | 0.0 | 0.00 | 0.00 | 0.00 | 46 | 1007.6 |
| 20260903231505 | 90 | 82 | 23.5 | 0.0 | 0.00 | 0.00 | 0.00 | 45 | 1007.2 |
| 20260903231005 | 90 | 8 | 20.0 | 0.0 | 0.00 | 0.00 | 0.00 | 44 | 1007.2 |
| 20260903230505 | 90 | 178 | 11.3 | 0.0 | 0.00 | 0.00 | 0.00 | 43 | 1006.9 |
| 20260903230005 | 91 | 17 | 11.3 | 0.0 | 0.00 | 0.00 | 0.00 | 42 | 1007.2 |
| 20260903225505 | 92 | 109 | 11.3 | 0.0 | 0.00 | 0.00 | 0.00 | 42 | 1006.9 |
| 20260903225005 | 92 | 160 | 3.5 | 0.0 | 0.00 | 0.00 | 0.00 | 42 | 1006.9 |
| 20260903224504 | 92 | 129 | 7.8 | 0.0 | 0.00 | 0.00 | 0.00 | 42 | 1006.9 |
| 20260903224005 | 92 | 118 | 11.3 | 0.0 | 0.00 | 0.00 | 0.00 | 42 | 1006.9 |
| 20260903223505 | 92 | 193 | 7.8 | 0.0 | 0.00 | 0.00 | 0.00 | 41 | 1006.5 |
| 20260903223212 | 92 | 162 | 7.8 | 0.0 | 0.00 | 0.00 | 0.00 | 42 | 1006.5 |
| 20260903222505 | 93 | 132 | 20.0 | 0.0 | 0.00 | 0.00 | 0.00 | 40 | 1006.5 |
| 20260903222212 | 93 | 193 | 11.3 | 0.0 | 0.00 | 0.00 | 0.00 | 41 | 1006.5 |
| 20260903221505 | 92 | 64 | 20.0 | 0.0 | 0.00 | 0.00 | 0.00 | 42 | 1006.9 |
| 20260903221005 | 92 | 70 | 11.3 | 0.0 | 0.00 | 0.00 | 0.00 | 41 | 1006.5 |
| 20260903220505 | 93 | 331 | 20.0 | 0.0 | 0.00 | 0.00 | 0.00 | 41 | 1006.5 |
| 20260903220005 | 93 | 25 | 15.6 | 0.0 | 0.00 | 0.00 | 0.00 | 41 | 1006.5 |
| 20260903215713 | 94 | 85 | 11.3 | 0.0 | 0.00 | 0.00 | 0.00 | 39 | 1006.5 |
| 20260903215005 | 94 | 132 | 3.5 | 0.0 | 0.00 | 0.00 | 0.00 | 38 | 1006.2 |
| 20260903214505 | 92 | 182 | 11.3 | 0.0 | 0.00 | 0.00 | 0.00 | 40 | 1006.5 |
| 20260903214005 | 93 | 43 | 11.3 | 0.0 | 0.00 | 0.00 | 0.00 | 41 | 1006.5 |
| 20260903213504 | 93 | 69 | 11.3 | 0.0 | 0.00 | 0.00 | 0.00 | 40 | 1006.5 |
| 20260903213214 | 93 | 38 | 11.3 | 0.0 | 0.00 | 0.00 | 0.00 | 39 | 1006.5 |
| 20260903212504 | 95 | 166 | 20.0 | 0.0 | 0.00 | 0.00 | 0.00 | 37 | 1006.5 |
| 20260903212005 | 95 | 125 | 11.3 | 0.0 | 0.00 | 0.00 | 0.00 | 36 | 1006.5 |
| 20260903211505 | 95 | 354 | 11.3 | 0.0 | 0.00 | 0.00 | 0.00 | 36 | 1006.5 |
| 20260903211005 | 95 | 79 | 3.5 | 0.0 | 0.00 | 0.00 | 0.00 | 36 | 1006.9 |
| 20260903210505 | 95 | 37 | 7.8 | 0.0 | 0.00 | 0.00 | 0.00 | 36 | 1006.5 |
| 20260903210211 | 95 | 66 | 7.8 | 0.0 | 0.00 | 0.00 | 0.00 | 36 | 1006.9 |
| 20260903205505 | 95 | 40 | 3.5 | 0.0 | 0.00 | 0.00 | 0.00 | 36 | 1006.9 |
| 20260903205211 | 95 | 121 | 3.5 | 0.0 | 0.00 | 0.00 | 0.00 | 37 | 1006.9 |
| 20260903204505 | 95 | 160 | 7.8 | 0.0 | 0.00 | 0.00 | 0.00 | 37 | 1006.9 |
| 20260903204005 | 94 | 133 | 0.0 | 0.0 | 0.00 | 0.00 | 0.00 | 38 | 1007.2 |
| 20260903203505 | 95 | 56 | 15.6 | 0.0 | 0.00 | 0.00 | 0.00 | 37 | 1006.9 |
| 20260903203005 | 95 | 73 | 3.5 | 0.0 | 0.00 | 0.00 | 0.00 | 39 | 1006.9 |
| 20260903202505 | 95 | 142 | 15.6 | 0.0 | 0.00 | 0.00 | 0.00 | 39 | 1007.2 |
| 20260903202005 | 95 | 165 | 11.3 | 0.0 | 0.00 | 0.00 | 0.00 | 39 | 1007.2 |
| 20260903201505 | 95 | 83 | 3.5 | 0.0 | 0.00 | 0.00 | 0.00 | 39 | 1007.2 |
| 20260903201004 | 95 | 124 | 7.8 | 0.0 | 0.00 | 0.00 | 0.00 | 38 | 1007.2 |
| 20260903200505 | 95 | 71 | 11.3 | 0.0 | 0.00 | 0.00 | 0.00 | 41 | 1007.6 |
| 20260903200005 | 95 | 33 | 7.8 | 0.0 | 0.00 | 0.00 | 0.00 | 41 | 1007.6 |
| 20260903195505 | 95 | 64 | 11.3 | 0.0 | 0.00 | 0.00 | 0.00 | 40 | 1007.6 |
| 20260903195005 | 93 | 37 | 7.8 | 0.0 | 0.00 | 0.00 | 0.00 | 41 | 1007.6 |
| 20260903194505 | 94 | 8 | 15.6 | 0.0 | 0.00 | 0.00 | 0.00 | 42 | 1007.6 |
| 20260903194005 | 95 | 56 | 15.6 | 0.0 | 0.00 | 0.00 | 0.00 | 41 | 1007.9 |
| 20260903193505 | 95 | 72 | 7.8 | 0.0 | 0.00 | 0.00 | 0.00 | 41 | 1007.9 |
| 20260903193004 | 95 | 353 | 20.0 | 0.0 | 0.00 | 0.00 | 0.00 | 42 | 1007.9 |
| 20260903192505 | 95 | 359 | 7.8 | 0.0 | 0.00 | 0.00 | 0.00 | 42 | 1007.9 |
| 20260903192213 | 94 | 25 | 7.8 | 0.0 | 0.00 | 0.00 | 0.00 | 42 | 1007.9 |
| 20260903191505 | 94 | 172 | 3.5 | 0.0 | 0.00 | 0.00 | 0.00 | 42 | 1008.2 |
| 20260903191005 | 94 | 57 | 20.0 | 0.0 | 0.00 | 0.00 | 0.00 | 42 | 1008.2 |
| 20260903190505 | 95 | 108 | 11.3 | 0.0 | 0.00 | 0.00 | 0.00 | 41 | 1008.2 |
| 20260903190005 | 94 | 85 | 3.5 | 0.0 | 0.00 | 0.00 | 0.00 | 40 | 1008.2 |
| 20260903185505 | 94 | 119 | 11.3 | 0.0 | 0.00 | 0.00 | 0.00 | 41 | 1008.6 |
| 20260903185005 | 93 | 179 | 3.5 | 0.0 | 0.00 | 0.00 | 0.00 | 42 | 1008.6 |
| 20260903184711 | 92 | 309 | 11.3 | 0.0 | 0.00 | 0.00 | 0.00 | 44 | 1008.9 |
| 20260903184005 | 93 | 9 | 7.8 | 0.0 | 0.00 | 0.00 | 0.00 | 43 | 1008.6 |
| 20260903183505 | 93 | 161 | 11.3 | 0.0 | 0.00 | 0.00 | 0.00 | 41 | 1008.9 |
| 20260903183005 | 93 | 164 | 7.8 | 0.0 | 0.00 | 0.00 | 0.00 | 41 | 1008.9 |
| 20260903182505 | 93 | 150 | 11.3 | 0.0 | 0.00 | 0.00 | 0.00 | 43 | 1009.3 |
| 20260903182005 | 92 | 162 | 15.6 | 0.0 | 0.00 | 0.00 | 0.00 | 43 | 1008.9 |
| 20260903181711 | 92 | 48 | 7.8 | 0.0 | 0.00 | 0.00 | 0.00 | 43 | 1009.3 |
| 20260903181005 | 92 | 218 | 15.6 | 0.0 | 0.00 | 0.00 | 0.00 | 43 | 1009.3 |
| 20260903180711 | 92 | 138 | 7.8 | 0.0 | 0.00 | 0.00 | 0.00 | 43 | 1009.3 |
| 20260903180005 | 92 | 89 | 11.3 | 0.0 | 0.00 | 0.00 | 0.00 | 43 | 1009.3 |
| 20260903175505 | 92 | 157 | 11.3 | 0.0 | 0.00 | 0.00 | 0.00 | 44 | 1009.9 |
| 20260903175005 | 92 | 150 | 27.8 | 0.0 | 0.00 | 0.00 | 0.00 | 44 | 1009.6 |
| 20260903174505 | 91 | 39 | 3.5 | 0.0 | 0.00 | 0.00 | 0.00 | 46 | 1009.6 |
| 20260903174212 | 92 | 193 | 11.3 | 0.0 | 0.00 | 0.00 | 0.00 | 44 | 1009.6 |
| 20260903173505 | 91 | 167 | 20.0 | 0.0 | 0.00 | 0.00 | 0.00 | 46 | 1009.9 |
| 20260903173005 | 90 | 111 | 3.5 | 0.0 | 0.00 | 0.00 | 0.00 | 47 | 1009.9 |
| 20260903172711 | 90 | 101 | 11.3 | 0.0 | 0.00 | 0.00 | 0.00 | 49 | 1009.9 |